Location: *
(44.3704°S, 44.8803°W)
Time: 08:43:56
(UTC+00:00)

Daily predictions for brighter satellites

Satellite Brightness Start Highest point End
(mag) Time Altitude Azimuth Time Altitude Azimuth Time Altitude Azimuth
Cosmos 468 4.5 19:54:44 10° SSW 20:00:01 72° ESE 20:05:14 10° NNE
Cosmos 2219 4.0 19:56:34 10° S 20:01:28 28° SE 20:06:20 10° ENE
ATLAS 5 CENTAUR R/B 4.3 19:58:16 10° SW 20:01:40 14° S 20:04:52 10° SSE
SJ-11-01 4.3 19:58:33 10° SSE 20:03:22 79° ENE 20:08:05 10° N
Meteor 1-10 Rocket 4.4 19:58:35 10° S 20:04:38 87° E 20:10:31 10° N
SAR-Lupe-4 4.2 20:01:15 10° SSE 20:04:38 36° E 20:07:58 10° NNE
Cosmos 1939 Rocket 3.9 20:02:02 10° S 20:05:48 45° WSW 20:09:27 10° NW
RESURS DK-1 2.3 20:02:40 10° SSW 20:06:44 68° ESE 20:10:45 10° NE
Cosmos 1238 Rocket 3.7 20:05:54 10° SSW 20:09:12 42° W 20:12:09 10° NNW
Meteor 1-27 Rocket 3.7 20:04:26 10° S 20:10:07 63° ESE 20:15:38 10° NNE
KORONAS-FOTON 4.4 20:09:58 10° SSE 20:13:07 29° ESE 20:16:13 10° NE
Cosmos 2074 Rocket 4.1 20:06:58 10° N 20:13:11 64° E 20:19:30 10° SSE
Cosmos 1842 4.2 20:10:49 10° SSE 20:13:38 22° ESE 20:16:24 10° NE
GEOS 3 Rocket 3.9 20:10:03 10° NE 20:15:23 81° NW 20:20:44 10° SW
USA 234 4.3 20:10:59 10° ESE 20:16:32 30° S 20:22:07 10° SW
Genesis I 2.7 20:16:24 10° NW 20:18:35 43° SW 20:20:46 10° SSE
NOAA 12 4.1 20:15:31 10° SSE 20:20:53 89° ENE 20:26:09 10° NNW
ADEOS Rocket 4.2 20:16:29 10° S 20:22:41 43° WSW 20:28:16 10° NW
Cosmos 1844 Rocket 4.3 20:21:15 10° SSE 20:23:52 13° SE 20:25:15 12° SE
ARIANE 5 R/B 3.4 20:23:25 10° SE 20:28:04 30° E 20:32:38 10° NNE
Cosmos 1484 Rocket 2.7 20:24:56 10° S 20:28:37 81° WSW 20:32:12 10° NNW
MOS 1-B Rocket 3.9 20:23:56 10° SSE 20:29:41 81° ENE 20:35:56 10° NNW
Cosmos 1953 Rocket 3.8 20:25:23 10° NNW 20:29:43 72° W 20:34:08 10° S
Cosmos 1346 Rocket 2.6 20:26:05 10° N 20:29:51 83° E 20:33:42 10° SSE
CZ-4C R/B 4.1 20:26:56 10° WNW 20:34:40 38° SW 20:41:06 10° SSE
Lacrosse 5 rocket 3.3 20:34:03 10° SW 20:35:35 12° SSW 20:37:08 10° SSE
USA 290 4.1 20:34:23 10° SSE 20:35:36 15° SE 20:35:36 15° SE
Cosmos 614 Rocket 4.0 20:33:55 10° SSW 20:39:13 90° E 20:44:27 10° NNE
Cosmos 1733 2.5 20:37:25 10° N 20:40:27 67° E 20:43:29 10° SSE
Cosmos 2297 Rocket 4.1 20:35:49 10° SW 20:40:52 33° WNW 20:45:52 10° NNW
COSMO-SKYMED 1 3.8 20:41:25 10° N 20:45:26 43° W 20:49:31 10° SSW
SMAP 3.8 20:42:48 13° SE 20:46:27 33° E 20:50:41 10° NNE
SAR-Lupe-1 4.4 20:43:32 10° S 20:47:13 69° WSW 20:50:50 10° NNW
BREEZE-M DEB (TANK) 3.9 20:47:59 10° WSW 20:51:04 50° S 20:57:10 19° E
Magion 5 Rocket2 4.1 20:42:29 10° NNW 20:52:12 84° NE 20:55:50 18° SE
Meteor 2-4 Rocket 3.7 20:48:04 10° S 20:53:49 85° ESE 20:59:40 10° N
SL-24 R/B 4.5 20:49:48 10° NNE 20:55:14 71° E 21:00:17 10° S
Cosmos 1707 2.3 20:54:04 10° S 20:57:30 88° E 21:00:53 10° N
Cosmos 1151 Rocket 3.2 20:56:26 10° S 21:00:36 46° ESE 21:04:42 10° NNE
Cosmos 921 Rocket 2.8 20:56:33 10° SSW 21:00:46 81° ESE 21:04:57 10° NNE
CZ-2D R/B 2.9 20:59:52 28° SSE 21:01:24 57° E 21:04:41 10° N
Cosmos 2263 Rocket 2.1 20:56:32 10° SSW 21:02:12 87° ESE 21:07:51 10° NNE
Cosmos 2333 Rocket 4.2 20:59:52 10° NE 21:00:16 11° ENE 21:00:16 11° ENE
SWARM A 4.5 21:02:16 27° SSE 21:03:46 46° E 21:07:04 10° NNE
Cosmos 1980 Rocket 2.3 20:59:09 10° NNW 21:04:52 80° WSW 21:10:03 13° SSE
Intercosmos 25 Rocket 3.6 21:01:43 10° S 21:05:32 83° E 21:11:20 10° N
Nadezhda 3 Rocket 4.3 21:00:27 10° SSW 21:06:40 70° W 21:12:54 10° N
BREEZE M DEB (TANK) 1.1 21:04:21 10° WNW 21:06:48 70° SSW 21:06:49 70° SSW
SL-12 R/B(2) 4.5 20:58:34 10° SW 21:07:01 44° SE 21:11:30 23° E
Meteor 1-5 Rocket 4.5 21:03:02 10° NNW 21:08:19 65° WSW 21:13:42 10° S
Cosmos 2227 Rocket 3.6 21:05:08 10° SW 21:10:27 42° WNW 21:15:43 10° N
BREEZE-M DEB (TANK) 2.8 21:08:21 10° W 21:10:42 27° SSW 21:10:56 27° SSW
CORIOLIS 4.2 21:05:47 11° SSE 21:11:02 59° ENE 21:16:25 10° N
IGS 5A 3.3 21:09:40 24° SSE 21:11:58 64° E 21:15:59 10° N
SL-08 R/B 3.7 21:07:39 10° NE 21:11:59 39° ESE 21:16:26 10° S
IRAS Rocket 4.2 21:07:57 10° SSE 21:13:38 70° ENE 21:19:15 10° N
SL-24 R/B 4.3 21:12:11 13° SSE 21:16:53 62° E 21:21:21 10° N
ISS -2.2 21:15:05 10° WSW 21:17:57 25° S 21:18:06 25° S
SJ-6F 4.4 21:18:32 42° SE 21:19:37 57° E 21:23:40 10° N
SL-8 Rocket 4.0 21:13:53 10° N 21:20:07 63° E 21:26:27 10° SSE
Gbstr 26 Del rocket 3.7 21:16:42 10° SW 21:20:24 31° S 21:20:29 31° SSE
Landsat 7 4.4 21:21:42 35° ENE 21:21:42 35° ENE 21:25:29 10° NNE
Cosmos 1697 Rocket 4.3 21:17:06 10° WNW 21:22:04 30° SW 21:27:03 10° S
ATLAS 2AS CENTAUR R/B 2.9 21:15:20 10° SSW 21:22:40 59° SE 21:27:48 21° ENE
Meteor 1-18 Rocket 4.3 21:16:54 10° SSW 21:22:47 84° W 21:28:41 10° N
USA 267 4.0 21:21:06 29° E 21:23:04 34° NE 21:28:55 10° NNW
ACS3 Solar Sail 3.1 21:17:17 10° S 21:23:07 39° WSW 21:28:49 10° NW
Cosmos 2369 3.7 21:18:10 10° NNW 21:23:53 90° WNW 21:27:37 23° SSE
AQUARIUS 4.2 21:26:38 50° ESE 21:27:06 53° E 21:31:27 10° N
Radarsat 4.4 21:24:01 20° SSE 21:27:45 72° ENE 21:32:56 10° N
In-Cosmos 22 4.4 21:22:22 10° S 21:28:00 51° ESE 21:33:38 10° NNE
CRYOSAT 2 4.3 21:27:40 20° SSE 21:31:09 64° E 21:36:02 10° N
BlueWalker 3 3.7 21:29:52 10° SW 21:32:19 20° S 21:32:19 20° S
IRS-P3 4.0 21:29:14 19° SSE 21:33:09 80° ENE 21:38:30 10° NNW
Cosmos 2366 rocket 3.9 21:28:14 10° N 21:34:22 72° E 21:40:36 10° SSE
SJ-12 4.2 21:33:14 27° S 21:35:12 60° WSW 21:39:02 10° NNW
Cosmos 1536 4.1 21:38:45 10° N 21:40:41 28° N 21:40:41 28° N
Iridium 4 Rocket 4.3 21:38:14 10° NNW 21:42:34 42° W 21:46:42 10° SSW
Cosmos 2360 Rocket 4.2 21:39:39 10° NNE 21:40:35 14° NNE 21:40:35 14° NNE
Cosmos 2219 4.0 21:40:21 10° SW 21:45:51 51° WNW 21:51:20 10° N
Cosmos 2237 4.1 21:40:24 10° NNW 21:46:08 75° ENE 21:47:32 52° SE
ATLAS 5 CENTAUR R/B 4.1 21:43:19 10° SSW 21:46:42 17° S 21:46:42 17° S
Cosmos 2218 Rocket 3.9 21:41:40 10° N 21:47:52 84° E 21:54:03 11° S
Cosmos 2322 Rocket 3.7 21:43:08 10° NNE 21:45:12 20° NNE 21:45:12 20° NNE
Cosmos 2082 4.1 21:44:19 10° SSW 21:49:57 62° WNW 21:55:32 10° N
Cosmos 1269 Rocket 3.9 21:45:50 10° SSW 21:51:12 89° E 21:54:16 26° NNE
USA 234 3.7 21:58:02 41° SSE 21:58:32 42° SSE 22:04:41 10° SW
Cosmos 2341 Rocket 4.3 21:52:39 10° NNW 21:59:00 68° W 22:05:29 10° S
SL-16 R/B 2.2 21:55:53 10° NNW 22:01:00 64° NE 22:01:00 64° NE
SL-19 R/B 4.3 22:03:47 63° SE 22:04:43 76° ENE 22:10:45 10° N
ARIANE 5 R/B 3.9 22:02:19 10° S 22:07:08 38° WSW 22:11:55 10° NW
Cosmos 1844 Rocket 3.4 22:03:19 10° SSW 22:06:57 39° S 22:06:57 39° S
Cosmos 1140 Rocket 3.8 22:07:24 10° SSW 22:11:42 59° SSW 22:11:42 59° SSW
Cosmos 2227 4.3 22:10:06 10° SSW 22:15:16 71° SSW 22:15:16 71° SSW
Cosmos 1821 Rocket 4.1 22:20:28 10° NNW 22:26:52 76° W 22:28:16 56° SSW
CENTAUR R/B 3.8 22:19:55 10° N 22:25:33 36° NNE 22:25:33 36° NNE
Cosmos 2333 Rocket 3.9 22:40:10 10° NNW 22:42:20 24° NNW 22:42:20 24° NNW
USA 267 4.0 23:08:28 47° WNW 23:08:28 47° WNW 23:12:59 10° WNW
ATLAS 2AS CENTAUR R/B 4.1 23:06:44 10° SW 23:13:21 36° WNW 23:15:21 31° NW
